Time,TemperatureF,DewpointF,PressureIn,WindDirection,WindDirectionDegrees,WindSpeedMPH,WindSpeedGustMPH,Humidity,HourlyPrecipIn,Conditions,Clouds,dailyrainin,SoftwareType,DateUTC
2013-07-08 00:04:00,79.3,77.1,29.81,North,-999,8.0,-999.0,93,-99.99,,,-99.99,Acu-Link.com,2013-07-08 05:04:00,
2013-07-08 00:19:00,79.2,77.0,29.82,North,-999,0.0,-999.0,93,-99.99,,,-99.99,Acu-Link.com,2013-07-08 05:19:00,
2013-07-08 00:34:00,78.6,77.0,29.82,North,-999,3.2,-999.0,95,-99.99,,,-99.99,Acu-Link.com,2013-07-08 05:34:00,
2013-07-08 00:49:00,78.8,76.9,29.82,North,-999,0.0,-999.0,94,-99.99,,,-99.99,Acu-Link.com,2013-07-08 05:49:00,
2013-07-08 01:04:00,78.4,77.2,29.81,North,-999,3.2,-999.0,96,-99.99,,,-99.99,Acu-Link.com,2013-07-08 06:04:00,
2013-07-08 01:20:00,77.8,77.2,29.80,North,-999,3.2,-999.0,98,-99.99,,,-99.99,Acu-Link.com,2013-07-08 06:20:00,
2013-07-08 01:35:00,77.6,76.7,29.80,North,-999,0.0,-999.0,97,-99.99,,,-99.99,Acu-Link.com,2013-07-08 06:35:00,
2013-07-08 01:50:00,77.7,76.1,29.81,North,-999,1.6,-999.0,95,-99.99,,,-99.99,Acu-Link.com,2013-07-08 06:50:00,
2013-07-08 02:05:00,77.5,75.9,29.80,North,-999,0.0,-999.0,95,-99.99,,,-99.99,Acu-Link.com,2013-07-08 07:05:00,
2013-07-08 02:21:00,77.0,76.1,29.79,North,-999,0.0,-999.0,97,-99.99,,,-99.99,Acu-Link.com,2013-07-08 07:21:00,
2013-07-08 02:36:00,76.4,76.1,29.78,North,-999,0.0,-999.0,99,-99.99,,,-99.99,Acu-Link.com,2013-07-08 07:36:00,
2013-07-08 02:51:00,75.8,75.5,29.79,North,-999,0.0,-999.0,99,-99.99,,,-99.99,Acu-Link.com,2013-07-08 07:51:00,
2013-07-08 03:07:00,75.7,74.8,29.79,North,-999,0.0,-999.0,97,-99.99,,,-99.99,Acu-Link.com,2013-07-08 08:07:00,
2013-07-08 03:22:00,75.8,74.3,29.79,North,-999,0.0,-999.0,95,-99.99,,,-99.99,Acu-Link.com,2013-07-08 08:22:00,
2013-07-08 03:37:00,75.9,74.0,29.78,North,-999,0.0,-999.0,94,-99.99,,,-99.99,Acu-Link.com,2013-07-08 08:37:00,
2013-07-08 03:52:00,77.0,73.2,29.78,North,-999,3.2,-999.0,88,-99.99,,,-99.99,Acu-Link.com,2013-07-08 08:52:00,
2013-07-08 04:07:00,77.8,71.5,29.79,North,-999,0.0,-999.0,81,-99.99,,,-99.99,Acu-Link.com,2013-07-08 09:07:00,
2013-07-08 04:23:00,77.9,70.5,29.80,North,-999,0.0,-999.0,78,-99.99,,,-99.99,Acu-Link.com,2013-07-08 09:23:00,
2013-07-08 04:38:00,79.4,70.0,29.80,North,-999,6.4,-999.0,73,-99.99,,,-99.99,Acu-Link.com,2013-07-08 09:38:00,
2013-07-08 04:53:00,79.4,70.0,29.79,North,-999,4.8,-999.0,73,-99.99,,,-99.99,Acu-Link.com,2013-07-08 09:53:00,
2013-07-08 05:09:00,78.9,70.3,29.79,North,-999,6.4,-999.0,75,-99.99,,,-99.99,Acu-Link.com,2013-07-08 10:09:00,
2013-07-08 05:24:00,78.7,70.1,29.79,North,-999,8.0,-999.0,75,-99.99,,,-99.99,Acu-Link.com,2013-07-08 10:24:00,
2013-07-08 05:39:00,79.3,69.9,29.79,North,-999,6.4,-999.0,73,-99.99,,,-99.99,Acu-Link.com,2013-07-08 10:39:00,
2013-07-08 05:55:00,79.5,69.7,29.80,North,-999,6.4,-999.0,72,-99.99,,,-99.99,Acu-Link.com,2013-07-08 10:55:00,
2013-07-08 06:10:00,79.1,69.7,29.80,North,-999,9.6,-999.0,73,-99.99,,,-99.99,Acu-Link.com,2013-07-08 11:10:00,
2013-07-08 06:25:00,78.4,69.8,29.80,North,-999,8.0,-999.0,75,-99.99,,,-99.99,Acu-Link.com,2013-07-08 11:25:00,
2013-07-08 06:40:00,78.3,70.1,29.80,North,-999,4.8,-999.0,76,-99.99,,,-99.99,Acu-Link.com,2013-07-08 11:40:00,
2013-07-08 06:55:00,77.8,70.0,29.80,North,-999,3.2,-999.0,77,-99.99,,,-99.99,Acu-Link.com,2013-07-08 11:55:00,
2013-07-08 07:10:00,77.8,70.4,29.81,North,-999,3.2,-999.0,78,-99.99,,,-99.99,Acu-Link.com,2013-07-08 12:10:00,
2013-07-08 07:26:00,77.8,70.7,29.82,North,-999,0.0,-999.0,79,-99.99,,,-99.99,Acu-Link.com,2013-07-08 12:26:00,
2013-07-08 07:41:00,78.2,72.2,29.83,North,-999,0.0,-999.0,82,-99.99,,,-99.99,Acu-Link.com,2013-07-08 12:41:00,
2013-07-08 07:57:00,78.0,73.1,29.84,North,-999,0.0,-999.0,85,-99.99,,,-99.99,Acu-Link.com,2013-07-08 12:57:00,
2013-07-08 08:12:00,78.1,73.2,29.84,North,-999,0.0,-999.0,85,-99.99,,,-99.99,Acu-Link.com,2013-07-08 13:12:00,
2013-07-08 08:28:00,78.4,73.2,29.84,North,-999,0.0,-999.0,84,-99.99,,,-99.99,Acu-Link.com,2013-07-08 13:28:00,
2013-07-08 08:43:00,80.6,73.8,29.85,North,-999,0.0,-999.0,80,-99.99,,,-99.99,Acu-Link.com,2013-07-08 13:43:00,
2013-07-08 08:58:00,82.3,74.0,29.85,North,-999,0.0,-999.0,76,-99.99,,,-99.99,Acu-Link.com,2013-07-08 13:58:00,
2013-07-08 09:13:00,84.7,75.5,29.85,North,-999,0.0,-999.0,74,-99.99,,,-99.99,Acu-Link.com,2013-07-08 14:13:00,
2013-07-08 09:29:00,83.1,74.3,29.84,North,-999,0.0,-999.0,75,-99.99,,,-99.99,Acu-Link.com,2013-07-08 14:29:00,
2013-07-08 09:44:00,82.1,73.4,29.85,North,-999,0.0,-999.0,75,-99.99,,,-99.99,Acu-Link.com,2013-07-08 14:44:00,
2013-07-08 09:59:00,81.1,74.3,29.85,North,-999,0.0,-999.0,80,-99.99,,,-99.99,Acu-Link.com,2013-07-08 14:59:00,
2013-07-08 10:14:00,81.6,75.9,29.85,North,-999,0.0,-999.0,83,-99.99,,,-99.99,Acu-Link.com,2013-07-08 15:14:00,
2013-07-08 10:30:00,82.3,74.3,29.86,North,-999,0.0,-999.0,77,-99.99,,,-99.99,Acu-Link.com,2013-07-08 15:30:00,
2013-07-08 10:45:00,81.2,74.8,29.86,North,-999,0.0,-999.0,81,-99.99,,,-99.99,Acu-Link.com,2013-07-08 15:45:00,
2013-07-08 11:01:00,81.1,74.7,29.86,North,-999,0.0,-999.0,81,-99.99,,,-99.99,Acu-Link.com,2013-07-08 16:01:00,
2013-07-08 11:16:00,82.0,74.1,29.86,North,-999,0.0,-999.0,77,-99.99,,,-99.99,Acu-Link.com,2013-07-08 16:16:00,
2013-07-08 11:31:00,83.0,73.8,29.86,North,-999,0.0,-999.0,74,-99.99,,,-99.99,Acu-Link.com,2013-07-08 16:31:00,
2013-07-08 12:02:00,88.6,77.1,29.86,North,-999,0.0,-999.0,69,-99.99,,,-99.99,Acu-Link.com,2013-07-08 17:02:00,
2013-07-08 12:17:00,85.9,75.4,29.86,North,-999,1.6,-999.0,71,-99.99,,,-99.99,Acu-Link.com,2013-07-08 17:17:00,
2013-07-08 12:32:00,89.5,76.6,29.85,North,-999,0.0,-999.0,66,-99.99,,,-99.99,Acu-Link.com,2013-07-08 17:32:00,
2013-07-08 12:48:00,89.8,76.9,29.85,North,-999,3.2,-999.0,66,-99.99,,,-99.99,Acu-Link.com,2013-07-08 17:48:00,
2013-07-08 13:03:00,89.2,76.3,29.85,North,-999,0.0,-999.0,66,-99.99,,,-99.99,Acu-Link.com,2013-07-08 18:03:00,
2013-07-08 14:04:00,89.6,76.7,29.84,North,-999,0.0,-999.0,66,-99.99,,,-99.99,Acu-Link.com,2013-07-08 19:04:00,
2013-07-08 14:19:00,94.6,78.0,29.84,North,-999,0.0,-999.0,59,-99.99,,,-99.99,Acu-Link.com,2013-07-08 19:19:00,
2013-07-08 14:34:00,91.8,77.8,29.84,North,-999,0.0,-999.0,64,-99.99,,,-99.99,Acu-Link.com,2013-07-08 19:34:00,
2013-07-08 14:49:00,88.3,76.4,29.84,North,-999,0.0,-999.0,68,-99.99,,,-99.99,Acu-Link.com,2013-07-08 19:49:00,
2013-07-08 15:05:00,87.8,77.6,29.85,North,-999,0.0,-999.0,72,-99.99,,,-99.99,Acu-Link.com,2013-07-08 20:05:00,
2013-07-08 15:35:00,87.0,78.1,29.84,North,-999,0.0,-999.0,75,-99.99,,,-99.99,Acu-Link.com,2013-07-08 20:35:00,
2013-07-08 16:06:00,87.1,78.2,29.84,North,-999,1.6,-999.0,75,-99.99,,,-99.99,Acu-Link.com,2013-07-08 21:06:00,
2013-07-08 16:52:00,88.4,79.0,29.83,North,-999,0.0,-999.0,74,-99.99,,,-99.99,Acu-Link.com,2013-07-08 21:52:00,
2013-07-08 17:23:00,86.0,77.9,29.83,North,-999,0.0,-999.0,77,-99.99,,,-99.99,Acu-Link.com,2013-07-08 22:23:00,
2013-07-08 17:54:00,85.6,77.9,29.82,North,-999,0.0,-999.0,78,-99.99,,,-99.99,Acu-Link.com,2013-07-08 22:54:00,
2013-07-08 18:24:00,84.5,78.8,29.82,North,-999,1.6,-999.0,83,-99.99,,,-99.99,Acu-Link.com,2013-07-08 23:24:00,
2013-07-08 18:39:00,83.8,79.1,29.82,North,-999,6.4,-999.0,86,-99.99,,,-99.99,Acu-Link.com,2013-07-08 23:39:00,
2013-07-08 18:55:00,83.3,79.0,29.82,North,-999,6.4,-999.0,87,-99.99,,,-99.99,Acu-Link.com,2013-07-08 23:55:00,
2013-07-08 19:10:00,82.6,78.3,29.81,North,-999,8.0,-999.0,87,-99.99,,,-99.99,Acu-Link.com,2013-07-09 00:10:00,
2013-07-08 19:25:00,82.5,78.6,29.80,North,-999,3.2,-999.0,88,-99.99,,,-99.99,Acu-Link.com,2013-07-09 00:25:00,
2013-07-08 19:40:00,82.6,78.7,29.80,North,-999,4.8,-999.0,88,-99.99,,,-99.99,Acu-Link.com,2013-07-09 00:40:00,
2013-07-08 20:11:00,81.9,78.7,29.79,North,-999,3.2,-999.0,90,-99.99,,,-99.99,Acu-Link.com,2013-07-09 01:11:00,
2013-07-08 20:57:00,81.1,77.5,29.79,North,-999,0.0,-999.0,89,-99.99,,,-99.99,Acu-Link.com,2013-07-09 01:57:00,
2013-07-08 21:12:00,80.8,76.6,29.79,North,-999,1.6,-999.0,87,-99.99,,,-99.99,Acu-Link.com,2013-07-09 02:12:00,
2013-07-08 21:43:00,80.4,76.5,29.81,North,-999,3.2,-999.0,88,-99.99,,,-99.99,Acu-Link.com,2013-07-09 02:43:00,
2013-07-08 21:58:00,80.2,76.3,29.80,North,-999,1.6,-999.0,88,-99.99,,,-99.99,Acu-Link.com,2013-07-09 02:58:00,
2013-07-08 22:13:00,79.7,76.2,29.80,North,-999,3.2,-999.0,89,-99.99,,,-99.99,Acu-Link.com,2013-07-09 03:13:00,
2013-07-08 22:28:00,79.5,76.3,29.79,North,-999,0.0,-999.0,90,-99.99,,,-99.99,Acu-Link.com,2013-07-09 03:28:00,
2013-07-08 22:59:00,79.2,76.0,29.79,North,-999,0.0,-999.0,90,-99.99,,,-99.99,Acu-Link.com,2013-07-09 03:59:00,
2013-07-08 23:14:00,78.7,75.5,29.78,North,-999,0.0,-999.0,90,-99.99,,,-99.99,Acu-Link.com,2013-07-09 04:14:00,
2013-07-08 23:29:00,78.4,75.2,29.78,North,-999,0.0,-999.0,90,-99.99,,,-99.99,Acu-Link.com,2013-07-09 04:29:00,
2013-07-08 23:45:00,78.4,74.5,29.77,North,-999,0.0,-999.0,88,-99.99,,,-99.99,Acu-Link.com,2013-07-09 04:45:00,